Flag for Germany Weather past 2 weeks in Lutherstadt Eisleben, Saxony-Anhalt, Germany

Now
38 °F

Light rain. Overcast.


Feels Like: 33 °F
Forecast: 36 / 39 °F
Wind: 6 mph from Southwest

Location: Leipzig-Schkeuditz

Current Time: Jan 26, 2015 at 2:06:50 PM

Latest Report: Jan 26, 2015 at 1:00 PM


Visibility: 15 mi

Pressure: 30.15 "Hg

Humidity: 87%

Dew point: 34 °F

Location of Lutherstadt EislebenLocation

Historic Weather in Lutherstadt Eisleben — Graph

°F

Lutherstadt Eisleben temperature yesterday

Maximum temperature yesterday: 36 °F (at 3:00 PM)
Minimum temperature yesterday: 30 °F (at 8:00 AM)
Average temperature yesterday: 34 °F

Past Weeks' High & Low Weather Summary

 TemperatureHumidityPressure
High54 °F (Jan 13, 6:00 PM)100% (Jan 22, 5:00 PM)30.34 "Hg (Jan 22, 5:00 PM)
Low26 °F (Jan 19, 2:00 AM)40% (Jan 13, 6:00 PM)29.63 "Hg (Jan 15, 7:00 PM)
Average37 °F86%29.99 "Hg
* Reported Jan 11 1:00 PM — Jan 26 1:00 PM, Lutherstadt Eisleben, Weather by CustomWeather, © 2014

Note: Actual official high and low records may vary slightly from our data, if they occured in-between our weather recording intervals... More about our weather records

Advertising

Lutherstadt Eisleben weather history for previous 24 hours

 ConditionsComfort  
Time TempWeatherWind HumidityBarometerVisibility
1:00 PM
Jan 26
38 °FLight rain. Overcast.6 mph87%30.15 "Hg15 mi
12:00 PM38 °FOvercast.7 mph87%30.17 "Hg14 mi
11:00 AM38 °FScattered clouds.7 mph88%30.20 "Hg11 mi
10:00 AM35 °FPartly sunny.5 mph95%30.23 "Hg9 mi
9:00 AM33 °FFog.3 mph97%30.25 "Hg4 mi
8:00 AM33 °FFog.3 mph99%30.26 "Hg2 mi
7:00 AM34 °FLow clouds.5 mph99%30.26 "Hg3 mi
6:00 AM34 °FLight rain. Low clouds.3 mph99%30.27 "Hg2 mi
5:00 AM34 °FFog.2 mph99%30.29 "Hg2 mi
3:00 AM34 °FDrizzle. Low clouds.2 mph100%30.31 "Hg2 mi
2:00 AM34 °FDrizzle. Low clouds.2 mph100%30.32 "Hg2 mi
1:00 AM34 °FDrizzle. Low clouds.2 mph100%30.32 "Hg2 mi
12:00 AM34 °FDrizzle. Low clouds.2 mph99%30.33 "Hg2 mi
11:00 PM
Jan 25
34 °FDrizzle. Low clouds.2 mph99%30.34 "Hg2 mi
9:00 PM34 °FRain. Low clouds.3 mph98%30.34 "Hg3 mi
8:00 PM35 °FRain. Low clouds.2 mph97%30.34 "Hg6 mi
7:00 PM35 °FLight rain. Low clouds.2 mph95%30.33 "Hg10 mi
6:00 PM35 °FLight rain. Overcast.3 mph93%30.33 "Hg11 mi
5:00 PM36 °FOvercast.2 mph93%30.32 "Hg14 mi
4:00 PM36 °FLight rain. Overcast.2 mph91%30.31 "Hg16 mi
3:00 PM36 °FLight rain. Overcast.2 mph90%30.30 "Hg12 mi
2:00 PM36 °FLight rain. Overcast.5 mph91%30.30 "Hg13 mi
Weather by CustomWeather, © 2014

See weather overviewHow to use our weather pages